Regional Weather Roundup
Issued by NWS Pendleton, OR

Home | Current Version | Previous Version | Text Only | Print | Product List | Glossary On
Versions: 1 2 3 4 5 6 7 8 9 10 11 12 13 14 15 16 17 18 19 20 21 22 23 24 25 26 27 28 29 30 31 32 33 34 35 36 37 38 39 40 41 42 43 44 45 46 47 48 49 50
000
ASUS46 KPDT 261125
RWRPDT
PENDLETON REGIONAL WEATHER ROUNDUP
NATIONAL WEATHER SERVICE PENDLETON OREGON
300 AM PST SUN FEB 26 2017

NOTE: FAIR INDICATES FEW OR NO CLOUDS BELOW 12,000 FEET WITH NO
SIGNIFICANT WEATHER AND/OR OBSTRUCTIONS TO VISIBILITY.

# INDICATES UNOFFICIAL STATION AND DATA

WAZ520-261210-
EAST SLOPES OF WASHINGTON CASCADES

CITY            SKY/WX      TMP DP  RH  WIND    PRES   REMARKS
#CLE ELUM HS    N/A         29  25  85  CALM    29.73F
#CLE ELUM LAKE  N/A         N/A N/A N/A SW3     29.79F
#GLENWOOD       N/A         30  24  78  S5      29.87F
#MANASTASH CYN  N/A         26  20  78  CALM    29.71F
#NELSON 3SW     N/A         25  23  92  CALM    30.05F
#NILE           N/A         25  22  88  CALM    29.10F
#TEANAWAY 4NE   N/A         28  25  88  CALM    N/A
#TROUT LAKE 1NE N/A         30  25  81  CALM    29.86F
#TROUT LAKE 1E  N/A         27  23  85  CALM    29.83F
$$

WAZ521-261210-
SIMCOE HIGHLANDS

CITY            SKY/WX      TMP DP  RH  WIND    PRES   REMARKS
#BICKLETON HS   N/A         30  22  72  W15     29.37F WCI 19
#CENTERVILLE 1SWN/A         31  26  81  CALM    29.83F
#GOLDENDALE 1NE N/A         34  16  47  CALM    N/A
#GOLDENDALE 4W  N/A         34   2  25  N1      29.83F
#GOODNOE HILLS  N/A         34  23  64  W5      29.72F
#LYLE 6NE       N/A         34  29  82  SE5     29.83F
#PITT 4SE       N/A         29  26  88  CALM    29.89F
$$

WAZ026-261210-
KITTITAS VALLEY

CITY            SKY/WX      TMP DP  RH  WIND    PRES   REMARKS
ELLENSBURG AP   CLOUDY      29  23  78  E5      29.76F
#ELLENSBURG CWU N/A         29  25  85  CALM    29.78F
#ELLENSBURG 3NE N/A         27  24  88  CALM    27.86F
#ELLENSBURG 1E  N/A         28  N/A N/A CALM    N/A
#KITTITAS 3S    N/A         27  24  88  W2      29.85F
#THORP 6N       N/A         27  24  88  CALM    29.86F
$$

WAZ027-261210-
YAKIMA VALLEY

CITY            SKY/WX      TMP DP  RH  WIND    PRES   REMARKS
SUNNYSIDE AP    CLOUDY      36  25  64  SE7     29.82F
YAKIMA AIRPORT  CLOUDY      37  25  61  SE9     29.79F
YAKIMA-VAGABOND CLOUDY      32  25  75  CALM    29.76F
#DONALD 2NE     N/A         35  12  38  NE2     28.65F
#GRANDVIEW      N/A         37  25  61  CALM    29.87F
#MABTON         N/A         38  28  67  CALM    29.82F
#MOXEE 2E       N/A         35   0  22  NE3     29.79F
#NACHES 2SW     N/A         30  25  81  CALM    29.77F
#TERRACE HTS    N/A         34  27  75  CALM    29.82F
#TOPPENISH      N/A         35  28  75  CALM    29.76F
#WEST VALLEY    N/A         32  26  78  CALM    29.83F
#W YAKIMA       N/A         33  25  72  CALM    29.84F
#WHITE SWAN 5E  N/A         37  27  67  SW9     29.84F
$$

WAZ028-261210-
LOWER COLUMBIA BASIN...WASHINGTON

CITY            SKY/WX      TMP DP  RH  WIND    PRES   REMARKS
PASCO           CLOUDY      39  29  67  SW6     29.86F
PROSSER AWOS    N/A         37  34  89  N5      29.86F
RICHLAND AWOS   CLOUDY      39  31  73  SW6     29.86F
#BENTON CITY    N/A         36  31  82  CALM    29.78F
#CONNELL 5N     N/A         31  30  96  CALM    29.88F
#CONNELL 5NW    N/A         32  30  92  CALM    29.83F
#ELTOPIA 6NW    N/A         34  31  89  CALM    28.81F
#KAHLOTUS       N/A         31  29  92  CALM    29.88F
#KENNEWICK 3S   N/A         36  30  79  NW1     29.88F
#PATERSON       N/A         38  31  76  CALM    29.85F
#SAGEMOOR 2W    N/A         34  29  82  CALM    29.72F
#TOUCHET 2S     N/A         39  30  70  W7      29.87F
$$

WAZ029-261210-
FOOTHILLS OF THE BLUES...WASHINGTON

CITY            SKY/WX      TMP DP  RH  WIND    PRES   REMARKS
WALLA WALLA AP  CLOUDY      36  31  82  S15     29.85F WCI 27
#CLYDE 6NW      N/A         33  29  85  CALM    29.87F
#DAYTON SCHOOL  N/A         32  25  75  SW3     29.86F
#LOWDEN 2SE     N/A         38  31  76  SW2     29.83F
#PLEASANT VIEW 1N/A         30  28  92  SW6     29.92F
#PRESCOTT       N/A         35  32  89  CALM    29.87F
#WHITMAN COLLEGEN/A         36  31  82  SE8     29.93F
#WAITSBURG 5S   N/A         32  30  92  S8      29.98F
#WALLA WALLA 5E N/A         36  31  82  S15     N/A    WCI 27
#WALLA WALLA U  N/A         38  33  82  CALM    29.89F
#WHITMAN MISSIONN/A         38  33  82  S7      29.90F
$$

WAZ030-261210-
BLUE MOUNTAINS...WASHINGTON

CITY            SKY/WX      TMP DP  RH  WIND    PRES   REMARKS
#DIXIE 5SE      N/A         28  25  88  SW17G24 29.70F WCI 16
#SKI BLUEWOOD   N/A         21  19  92  CALM    29.67F
$$

ORZ009-041-WAZ024-261210-
COLUMBIA RIVER GORGE

CITY            SKY/WX      TMP DP  RH  WIND    PRES   REMARKS
HOOD RIVER AP   CLOUDY      36  32  85  CALM    29.85F
THE DALLES AP   MOCLDY      40  30  67  NW9     29.86F
#ARLINGTON AIRPON/A         37  29  72  W1      29.87F
#ARLINGTON HS   N/A         40  27  59  CALM    29.80F
#CELILO DOT     N/A         40  25  55  S3      N/A
#LYLE           N/A         40  33  76  N2      29.88F
#MOSIER 1S      N/A         35  22  59  CALM    29.82F
#MURDOCK        N/A         40  32  73  W8      29.85F
#RUFUS DOT      N/A         42  27  55  W8      N/A
#SMITHVILLE     N/A         40  32  73  N10     29.80F

$$

ORZ510-261210-
NORTH CENTRAL OREGON

CITY            SKY/WX      TMP DP  RH  WIND    PRES   REMARKS
#CHENOWITH 1W   N/A         32  28  85  NW12    N/A    WCI 23
#COW CYN RST AREN/A         31  20  63  S6      N/A
#GRASS VALLEY 1SN/A         33  26  75  W9      29.94F
#KENT DOT       N/A         32  16  51  N9      N/A
#MAUPIN SCHOOL  N/A         39  25  57  CALM    29.88F
#MORO SCHOOL    N/A         31  29  92  CALM    29.88F
#SHANIKO 5WSW   N/A         29  15  55  N8      N/A
#SHANIKO 4NW    N/A         28  20  71  S5      29.76F
#TYGH VALLEY 2NEN/A         38  27  64  N7      29.86F
#WAPANITIA AIRPON/A         35  24  64  W5      29.90F
#WASCO DOT      N/A         35  28  75  SW3     N/A
#WASCO 5NE      N/A         33  28  82  CALM    29.88F
$$

ORZ511-261210-
CENTRAL OREGON

CITY            SKY/WX      TMP DP  RH  WIND    PRES   REMARKS
BEND AIRPORT    CLOUDY      32  16  51  SW13    29.78F WCI 22
MADRAS AIRPORT  MOCLDY      34  19  54  SW14    29.85  WCI 25
PRINEVILLE AP   CLOUDY      28  25  88  SE5     29.79F
REDMOND AIRPORT CLOUDY      32  19  58  E5      29.80F
#ASHWOOD SCHOOL N/A         35  23  61  S5      29.78F
#BEND 1SW       N/A         28  21  75  SE3     N/A
#BEND-AWBREY    N/A         30  19  63  W5      29.88F
#BEND-KIM LN    N/A         28  22  78  NE2     29.83F
#CULVER         N/A         33  20  58  S7      29.83F
#CULVER 8W      N/A         33  17  51  SW2     29.82F
#LAKE BILLY CHINN/A         34  N/A N/A SW12    29.93F WCI 25
#POWELL BUTTE 3EN/A         29  23  78  E2      N/A
#POWELL BUTTE   N/A         31  15  51  SW3     29.75F
#PRINEVILLE 3N  N/A         29  24  81  CALM    29.89F
#WARM SPRINGS   N/A         32  26  78  CALM    29.80F

$$


ORZ509-261210-
EAST SLOPES OF OREGON CASCADES

CITY            SKY/WX      TMP DP  RH  WIND    PRES   REMARKS
SISTERS AWOS    N/A         32  19  58  SW6     29.78F
#BLUE BOX PASS  N/A         24  N/A N/A NW3     N/A
#CAMP SHERMAN   N/A         30  21  69  N1      29.92F
#LA PINE 4NW    N/A         22  16  77  CALM    30.00F
#LAVA BUTTE DOT N/A         24  16  71  CALM    N/A
#SISTERS ODOT   N/A         31  N/A N/A SE3     N/A
#SISTERS 3N     N/A         30  13  49  SW3     29.79F
#SUNRIVER       N/A         26  20  78  S2      29.93F
#TUMALO 3W      N/A         27  21  78  N2      29.77F
#WANOGA BUTTE D N/A         18  12  77  SW13    N/A    WCI  5

$$

ORZ044-261210-
LOWER COLUMBIA BASIN...OREGON

CITY            SKY/WX      TMP DP  RH  WIND    PRES   REMARKS
HERMISTON       CLOUDY      37  31  79  S8      29.85F
#BOARDMAN SCHOOLN/A         39  31  73  SW3     29.87F
#BOARDMAN 8SW   N/A         37  32  82  SW5     29.87F
#ECHO 8SW       N/A         36  31  82  SW1     29.86F
#I-84 EX 198 DOTN/A         36  29  75  N6      N/A
#IONE SCHOOL    N/A         38  22  52  CALM    29.89F
#UMATILLA       N/A         40  28  62  SW2     29.81F
$$

ORZ507-261210-
NORTHERN FOOTHILLS OF THE BLUES

CITY            SKY/WX      TMP DP  RH  WIND    PRES   REMARKS
PENDLETON AIRPT CLOUDY      35  29  78  SW7     29.83F
#ADAMS 3WNW     N/A         31  29  92  E1      29.88F
#ATHENA         N/A         31  30  96  CALM    29.92F
#CAYUSE         N/A         34  29  82  CALM    29.88F
#HELIX SCHOOL   N/A         32  30  92  N8      29.90F
#HELIX 3N       N/A         31  29  92  S13     29.80F WCI 21
#HOLDMAN 5SE    N/A         35  30  82  S3      29.83F
#HOLDMAN 6E     N/A         33  29  85  E8      29.69F
#M-F FERNDALE   N/A         36  30  79  CALM    29.84F
#M-F GROVE ELEM N/A         35  30  82  CALM    29.83F
#M-FREEWATER 5SEN/A         34  30  85  S2      29.85F
#PENDLETON DNTN N/A         37  23  56  NW3     29.86F
#PDT AQUATIC CTRN/A         37  26  64  SW5     29.87F
#PDT SUNRIDGE   N/A         35  29  78  CALM    29.86F
#PENDLETON 7NW  N/A         35  28  75  CALM    31.81S
#PILOT ROCK 1S  N/A         34  22  61  SE2     29.85F
#PILOT ROCK     N/A         34  26  72  CALM    29.85F
#TUTUILLA       N/A         35  29  78  S2      29.89F
#UMAPINE 2E     N/A         37  33  85  S5      29.84F
#WESTON SCHOOL  N/A         31  28  88  W7      29.77F

$$

ORZ508-261210-
SOUTHERN FOOTHILLS OF THE BLUES

CITY            SKY/WX      TMP DP  RH  WIND    PRES   REMARKS
LEXINGTON       CLOUDY      36  27  69  S7      29.84F
#AJAX           N/A         34  17  49  S6      29.96F
#CONDON SCHOOL  N/A         32  24  72  SW7     29.76F
#CONDON 5W      N/A         29  20  69  SW7     29.74F
#HEPPNER EOC    N/A         35  24  64  S6      29.81F
#HEPPNER 4NE    N/A         31  25  78  CALM    29.90F
#LEXINGTON 2SE  N/A         36  26  67  SW3     29.79F
#MIKKALO        N/A         34  26  72  S1      29.94F
#OLEX 4N        N/A         35  30  82  W2      29.83F
#RUGGS 5NE      N/A         31  22  69  SW6     29.94F
#RUGGS 2SW      N/A         31  23  72  SW2     29.92F

$$

ORZ502-503-261210-
BLUE MOUNTAINS

CITY            SKY/WX      TMP DP  RH  WIND    PRES   REMARKS
MEACHAM         LGT SNOW    26  21  81  CALM    29.76F
#BATTLE MTN DOT N/A         24  18  77  S2      N/A
#GREENHORN 9SW  N/A         22  19  88  CALM    29.82F
#HEPPNER 15SE   N/A         25  20  81  CALM    30.03F
#LADD CYN SMT   N/A         27  19  71  SE8     N/A
#LADD CREEK ODOTN/A         28   2  32  SW6     N/A
#LONG CREEK HS  N/A         27  25  92  CALM    N/A
#N POWDER DOT   N/A         27  24  88  W2      N/A
#PIKES PEAK     N/A         25  23  92  NW17G24 27.99S WCI 12
#TOLLGATE       N/A         20  19  96  SW6     29.60F
#TROY SCHOOL    N/A         36  27  69  SW5     29.74F
#UKIAH          N/A         29  23  78  CALM    29.84F
#WESTON 4E      N/A         26  25  96  SE5     29.88F
$$

ORZ505-261210-
JOHN DAY BASIN

CITY            SKY/WX      TMP DP  RH  WIND    PRES   REMARKS
JOHN DAY        CLOUDY      31  20  63  SW7     29.80F
#JOHN DAY KJDY  N/A         27  N/A N/A E1      30.69F
#ANTELOPE 9ESE  N/A         33  27  78  CALM    N/A
#DAYVILLE SCHOOLN/A         30  22  72  CALM    29.82F
#MITCHELL       N/A         30  24  78  CALM    29.98F
#MITCHELL 8NW   N/A         30  19  63  W3      29.73F
#MONUMENT HS    N/A         30  24  78  CALM    29.81F
#MT. VERNON 5SE N/A         28  19  68  CALM    29.74F
#SPRAY SCHOOL   N/A         29  N/A N/A CALM    N/A
#WINLOCK        N/A         27  20  74  CALM    29.77F
$$

ORZ506-261210-
OCHOCO AND JOHN DAY HIGHLANDS

CITY            SKY/WX      TMP DP  RH  WIND    PRES   REMARKS
#HORSE RIDGE DO N/A         29  14  53  SW7     N/A
#PAULINA SCHOOL N/A         29  19  66  SW3     N/A
#PINE MTN OBS   N/A         18  15  88  SE14    N/A    WCI  4
#PRAIRIE CITY   N/A         24  17  74  CALM    29.98F
#SENECA         N/A         17  N/A N/A CALM    N/A
#SENECA 9NW     N/A         16  12  84  CALM    30.03F
$$

ORZ049-261210-
GRANDE RONDE VALLEY

CITY            SKY/WX      TMP DP  RH  WIND    PRES   REMARKS
LA GRANDE       CLOUDY      34  19  54  S8      29.80F
#COVE           N/A         31  25  78  CALM    29.85F
#COVE SCHOOL    N/A         31  24  75  CALM    29.83F
#COVE 6NW       N/A         31  25  78  CALM    29.92F
#ELGIN 3N       N/A         30  18  60  S9      29.78F
#ELGIN 1E       N/A         32  24  72  CALM    N/A
#IMBLER SCHOOL  N/A         30  25  81  CALM    29.79F
#ISLAND CITY 4N N/A         37  35  92  CALM    29.87F
#UNION 1S       N/A         31  22  69  S3      29.92F
$$

ORZ050-261210-
WALLOWA COUNTY

CITY            SKY/WX      TMP DP  RH  WIND    PRES   REMARKS
JOSEPH AIRPORT  CLOUDY      25  19  78  CALM    29.76F
#IMNAHA SCHOOL  N/A         35  25  66  N2      29.84F
#IMNAHA 10S     N/A         29  19  66  CALM    30.11S
#JOSEPH 3N      N/A         25  16  68  CALM    29.81F
#JOSEPH 3W      N/A         22  15  74  CALM    N/A
#LOSTINE        N/A         27  21  78  SW1     29.70F
#LOSTINE 3SE    N/A         28  21  75  S1      29.80F
#MT HOWARD 8000 N/A         10   7  87  SW7     29.49F
#PROMISE 1S     N/A         26  22  85  E1      29.97F
#WALLOWA SCHOOL N/A         31  21  66  CALM    29.78F



$$



USA.gov is the U.S. government's official web portal to all federal, state and local government web resources and services.